This is the latest recevied weather packets stored in our database for station/object KN4DS-3. If no packets are shown the sender has not sent any weather packets the latest 1 day(s).
| Time | Temp. | Humidity | Pressure | Rain* | Wind** | Luminosity | Snow |
|---|---|---|---|---|---|---|---|
| 1778054705 | 16.67° C | 86% | 1015.1 hPa | 0 mm | - | - | - |
| 1778054104 | 16.67° C | 85% | 1015.2 hPa | 0 mm | - | - | - |
| 1778052605 | 17.22° C | 83% | 1014.7 hPa | 0 mm | - | - | - |
| 1778050804 | 18.33° C | 80% | 1014.8 hPa | 0 mm | - | - | - |
| 1778048704 | 18.33° C | 83% | 1014.6 hPa | 0 mm | - | - | - |
| 1778048405 | 17.78° C | 82% | 1014.5 hPa | 0 mm | - | - | - |
| 1778046904 | 17.22° C | 81% | 1014.8 hPa | 0 mm | - | - | - |
| 1778046005 | 17.22° C | 81% | 1014.9 hPa | 0 mm | - | - | - |
| 1778045104 | 16.67° C | 80% | 1015.3 hPa | 0 mm | - | - | - |
| 1778044504 | 16.67° C | 80% | 1015.1 hPa | 0 mm | - | - | - |
| 1778044205 | 16.67° C | 80% | 1015 hPa | 0 mm | - | - | - |
| 1778043304 | 16.67° C | 81% | 1014.8 hPa | 0 mm | - | - | - |
| 1778042104 | 16.11° C | 84% | 1015 hPa | 0 mm | - | - | - |
| 1778041504 | 16.11° C | 83% | 1015 hPa | 0 mm | - | - | - |
| 1778040305 | 16.11° C | 82% | 1015.2 hPa | 0 mm | - | - | - |
| 1778039704 | 16.11° C | 80% | 1015.1 hPa | 0 mm | - | - | - |
| 1778039405 | 16.11° C | 80% | 1015 hPa | 0 mm | - | - | - |
| 1778039104 | 16.67° C | 79% | 1015 hPa | 0 mm | - | - | - |
| 1778038505 | 16.67° C | 77% | 1014.9 hPa | 0 mm | - | - | - |
| 1778037904 | 16.67° C | 76% | 1015 hPa | 0 mm | - | - | - |
| 1778037605 | 16.67° C | 75% | 1015 hPa | 0 mm | - | - | - |
| 1778037005 | 17.22° C | 74% | 1015 hPa | 0 mm | - | - | - |
| 1778036704 | 17.22° C | 73% | 1015 hPa | 0 mm | - | - | - |
| 1778036104 | 17.78° C | 72% | 1015.2 hPa | 0 mm | - | - | - |
| 1778035205 | 17.78° C | 69% | 1015.2 hPa | 0 mm | - | - | - |
* Rain latest hour (hover to see other rain measurements)
** Current wind speed in m/s (hover to see current wind gust speed)